Brno, Czech Republic

6:00 AM CET on December 08, 2016 (GMT +0100)
Turany

Weather History for LKTB - March, 2013

Change the Weather History Date:

Monday, March 11, 2013

  Actual Average Record
Temperature  
Mean Temperature 38 °F -  
Max Temperature 46 °F - - ()
Min Temperature 30 °F - - ()
Degree Days  
Heating Degree Days 27    
Moisture  
Dew Point 33 °F    
Average Humidity 79    
Maximum Humidity 100    
Minimum Humidity 46    
Precipitation  
Precipitation 0.00 in - - ()
Sea Level Pressure  
Sea Level Pressure 29.52 in    
Wind  
Wind Speed 6 mph ()    
Max Wind Speed 18 mph    
Max Gust Speed -    
Visibility 4.0 miles    
Events Fog    
T = Trace of Precipitation, MM = Missing Value Source: Averaged Metar Reports

Daily Weather History Graph

Daily Weather History Graph

Search for Another Location

Airport or City:

Trip Planner

Search our weather history database for the weather conditions in past years. The results will help you decide how hot, cold, wet, or windy it might be!

Date:

Astronomy

Mar. 11, 2013 Rise Set
Actual Time 6:15 AM CET 5:52 PM CET
Civil Twilight 5:43 AM CET 6:23 PM CET
Nautical Twilight 5:06 AM CET 7:00 PM CET
Astronomical Twilight 4:29 AM CET 7:38 PM CET
Moon 5:38 AM CET (3/11) 5:49 PM CET (3/11)
Length of Visible Light 12h 40m
Length of Day
11h 37m
Waning Crescent, 0% of the Moon is Illuminated
Mar 11
Waning Crescent
Mar 11
New
Mar 19
First Quarter
Mar 27
Full
Apr 3
Last Quarter

Hourly Weather History & Observations

Time (CET) Temp. Windchill Dew Point Humidity Pressure Visibility Wind Dir Wind Speed Gust Speed Precip Events Conditions
12:00 AM 42.8 °F 41.1 °F 39.2 °F 87% 29.47 in 2.2 mi North 3.5 mph - N/A   Overcast
12:30 AM 42.8 °F - 41.0 °F 93% 29.47 in 2.2 mi NE 2.3 mph - N/A   Overcast
1:00 AM 41 °F - 39 °F 91% 29.49 in 2 mi ENE 4.5 mph - -   Mist
1:00 AM 41.0 °F 38.0 °F 39.2 °F 93% 29.44 in 2.2 mi East 4.6 mph - N/A   Mostly Cloudy
1:30 AM 41.0 °F 39.0 °F 41.0 °F 100% 29.44 in 2.2 mi North 3.5 mph - N/A   Mostly Cloudy
2:00 AM 41.0 °F - 39.2 °F 93% 29.44 in 2.2 mi Variable 2.3 mph - N/A   Mostly Cloudy
2:30 AM 41.0 °F - 39.2 °F 93% 29.44 in 2.2 mi Calm Calm - N/A   Overcast
3:00 AM 41.0 °F - 39.2 °F 93% 29.44 in 2.2 mi East 2.3 mph - N/A   Light Drizzle
3:30 AM 41.0 °F - 39.2 °F 93% 29.44 in 1.9 mi SW 2.3 mph - N/A   Light Drizzle
4:00 AM 41.0 °F - 41.0 °F 100% 29.44 in 1.9 mi Variable 1.2 mph - N/A   Light Drizzle
4:30 AM 41.0 °F 38.0 °F 39.2 °F 93% 29.44 in 0.1 mi SW 4.6 mph - N/A Fog Fog
5:00 AM 41.0 °F 38.0 °F 39.2 °F 93% 29.44 in 0.1 mi WSW 4.6 mph - N/A Fog Fog
5:30 AM 41.0 °F - 39.2 °F 93% 29.44 in 0.1 mi Variable 2.3 mph - N/A Fog Fog
6:00 AM 39.2 °F 37.0 °F 39.2 °F 100% 29.44 in 0.1 mi WSW 3.5 mph - N/A Fog Fog
6:30 AM 39.2 °F 37.0 °F 37.4 °F 93% 29.44 in 0.1 mi SSW 3.5 mph - N/A Fog Fog
7:00 AM 39 °F - 38 °F 92% 29.50 in 0 mi South 4.5 mph - - Fog Heavy Fog
7:00 AM 39.2 °F - 37.4 °F 93% 29.47 in 0.1 mi Variable 2.3 mph - N/A Fog Fog
7:30 AM 39.2 °F 37.0 °F 37.4 °F 93% 29.47 in 0.1 mi SSW 3.5 mph - N/A Fog Fog
8:00 AM 39.2 °F 37.0 °F 39.2 °F 100% 29.47 in 0.2 mi WSW 3.5 mph - N/A Fog Fog
8:16 AM 41.0 °F 38.0 °F 39.2 °F 93% 29.47 in - WSW 4.6 mph - N/A Fog Fog
8:30 AM 41.0 °F 39.0 °F 39.2 °F 93% 29.47 in 0.3 mi West 3.5 mph - N/A Fog Fog
8:36 AM 41.0 °F 39.0 °F 39.2 °F 93% 29.47 in 0.2 mi West 3.5 mph - N/A Fog Fog
9:00 AM 42.8 °F 40.1 °F 41.0 °F 93% 29.47 in 3.1 mi WNW 4.6 mph - N/A   Scattered Clouds
9:05 AM 42.8 °F 40.1 °F 42.8 °F 100% 29.47 in 3.1 mi WNW 4.6 mph - N/A   Scattered Clouds
9:30 AM 46.4 °F 41.1 °F 42.8 °F 87% 29.47 in 6.2 mi WNW 11.5 mph - N/A   Mostly Cloudy
10:00 AM 44.6 °F 38.1 °F 37.4 °F 76% 29.50 in 6.2 mi WNW 13.8 mph - N/A   Mostly Cloudy
10:30 AM 44.6 °F 37.8 °F 35.6 °F 71% 29.50 in 6.2 mi WNW 15.0 mph - N/A   Mostly Cloudy
11:00 AM 44.6 °F 38.8 °F 33.8 °F 66% 29.53 in 6.2 mi WNW 11.5 mph - N/A   Mostly Cloudy
11:30 AM 44.6 °F 37.2 °F 32.0 °F 61% 29.53 in 6.2 mi WNW 17.3 mph - N/A   Mostly Cloudy
12:00 PM 42.8 °F 35.1 °F 30.2 °F 61% 29.53 in 6.2 mi WNW 16.1 mph - N/A   Mostly Cloudy
12:30 PM 42.8 °F 35.8 °F 30.2 °F 61% 29.53 in 6.2 mi NW 13.8 mph - N/A   Mostly Cloudy
1:00 PM 43 °F - 29 °F 46% 29.57 in 16 mi West 17.9 mph - -   Partly Cloudy
1:00 PM 42.8 °F 35.1 °F 30.2 °F 61% 29.53 in 6.2 mi West 16.1 mph - N/A   Mostly Cloudy
1:30 PM 44.6 °F 38.1 °F 30.2 °F 57% 29.53 in 6.2 mi NW 13.8 mph - N/A   Mostly Cloudy
2:00 PM 44.6 °F 38.1 °F 28.4 °F 53% 29.53 in 6.2 mi NW 13.8 mph - N/A   Mostly Cloudy
2:30 PM 46.4 °F 41.1 °F 28.4 °F 50% 29.53 in 6.2 mi NW 11.5 mph - N/A   Mostly Cloudy
3:00 PM 44.6 °F 38.4 °F 28.4 °F 53% 29.53 in 6.2 mi NW 12.7 mph - N/A   Mostly Cloudy
3:30 PM 42.8 °F 36.2 °F 28.4 °F 57% 29.53 in 6.2 mi WNW 12.7 mph - N/A   Mostly Cloudy
4:00 PM 42.8 °F 37.5 °F 28.4 °F 57% 29.56 in 6.2 mi NNW 9.2 mph - N/A   Mostly Cloudy
4:30 PM 42.8 °F 36.6 °F 28.4 °F 57% 29.56 in 6.2 mi North 11.5 mph - N/A   Mostly Cloudy
5:00 PM 41.0 °F 34.7 °F 28.4 °F 61% 29.56 in 6.2 mi North 10.4 mph - N/A   Mostly Cloudy
5:30 PM 41.0 °F 35.2 °F 28.4 °F 61% 29.56 in 6.2 mi North 9.2 mph - N/A   Partly Cloudy
6:00 PM 39.2 °F 32.5 °F 28.4 °F 65% 29.56 in 6.2 mi North 10.4 mph - N/A   Partly Cloudy
6:30 PM 39.2 °F 33.0 °F 28.4 °F 65% 29.56 in 6.2 mi North 9.2 mph - N/A   Partly Cloudy
7:00 PM 37 °F - 27 °F 57% 29.63 in 9 mi North 6.7 mph - -   Mostly Cloudy
7:00 PM 37.4 °F 30.3 °F 28.4 °F 70% 29.59 in 6.2 mi North 10.4 mph - N/A   Partly Cloudy
7:30 PM 35.6 °F 28.6 °F 26.6 °F 70% 29.59 in 6.2 mi North 9.2 mph - N/A   Mostly Cloudy
8:00 PM 35.6 °F 29.2 °F 24.8 °F 65% 29.59 in 6.2 mi NNW 8.1 mph - N/A   Mostly Cloudy
8:30 PM 33.8 °F 28.6 °F 24.8 °F 70% 29.59 in 6.2 mi NE 5.8 mph - N/A   Mostly Cloudy
9:00 PM 32.0 °F 23.6 °F 24.8 °F 75% 29.59 in 5.0 mi NNE 10.4 mph - N/A   Mostly Cloudy
9:30 PM 32.0 °F 26.4 °F 24.8 °F 75% 29.62 in 4.3 mi ENE 5.8 mph - N/A   Scattered Clouds
10:00 PM 30.2 °F 25.4 °F 26.6 °F 86% 29.62 in 3.1 mi East 4.6 mph - N/A   Mostly Cloudy
10:30 PM 30.2 °F 23.4 °F 26.6 °F 86% 29.62 in 3.1 mi ENE 6.9 mph - N/A   Overcast
10:36 PM 30.2 °F 23.4 °F 26.6 °F 86% 29.62 in 3.1 mi ENE 6.9 mph - N/A   Overcast
11:00 PM 30.2 °F 21.9 °F 26.6 °F 86% 29.62 in 3.1 mi ENE 9.2 mph - N/A   Overcast
11:30 PM 30.2 °F 21.3 °F 26.6 °F 86% 29.62 in 3.1 mi ENE 10.4 mph - N/A   Overcast